Hovedside
METAR-TAF:

METAR-TAF

Lufthavner :

Båtsfjord, Norge

Båtsfjord lufthavn

breddegrad: 70-38N, lengdegrad: 029-44E, høyde over havet: 10 m

Gjeldene værobservasjon

Denne rapporten ble laget for 11 timer og 15 minutter siden, klokken 20:20 UTC
Vind 3 kt fra Sørvest
Temperatur -7°C
Luftfuktighet 79%
Trykk 1008 hPa
Sikt 10 km eller mer
Få skyer i en høyde av 2500 ft

METAR: ENBS 202020Z 22003KT 9999 FEW025 M07/M10 Q1008

Tid: 09:35 (07:35 UTC)


TAF: fraværende

Værobservasjoner og værvarsel for over 4000 flyplasser (METAR- og TAF-rapporter).

Tilgjengelige stasjoner er representert av de røde og gule prikkene på kartet.

Hold musepekeren over prikken for å se navnet på stasjonen.

Klikk så for å se værobservasjoner og -varsler.

For å forandre kartet kan du klikke på den grønne knappen med svart kryss for å zoome inn, på den grønne knappen med strek for å zoome ut, eller på de grønne pilene for å se tilstøtende kart.


METAR-TAF: